Meteo pe oră la Bolshie Podelki

Astăzi, 8 Mai, Sâmbătă

Timp Temperatura Precipitaţii Vânt Presiune Umiditate
00:00 +6°C° 1.1 mm 5 m/s 738 mmHg 84%
01:00 +6°C° 1.1 mm 5 m/s 738 mmHg 88%
02:00 +6°C° 1.1 mm 5 m/s 737 mmHg 92%
03:00 +6°C° 0.2 mm 5 m/s 737 mmHg 93%
04:00 +6°C° 0.2 mm 5 m/s 736 mmHg 94%
05:00 +6°C° 0.2 mm 5 m/s 736 mmHg 95%
06:00 +7°C° 0.1 mm 4 m/s 736 mmHg 92%
07:00 +8°C° 0.1 mm 4 m/s 736 mmHg 90%
08:00 +9°C° 0.1 mm 3 m/s 736 mmHg 87%
09:00 +10°C° 0.1 mm 3 m/s 736 mmHg 83%
10:00 +10°C° 0.1 mm 3 m/s 736 mmHg 79%
11:00 +12°C° 0.1 mm 2 m/s 736 mmHg 74%
12:00 +10°C° 0.1 mm 3 m/s 736 mmHg 75%
13:00 +10°C° 0.1 mm 4 m/s 736 mmHg 77%
14:00 +8°C° 0.1 mm 4 m/s 736 mmHg 78%
15:00 +8°C° 0 mm 5 m/s 736 mmHg 77%
16:00 +8°C° 0 mm 5 m/s 736 mmHg 76%
17:00 +7°C° 0 mm 5 m/s 737 mmHg 75%
18:00 +7°C° 0.1 mm 5 m/s 737 mmHg 75%
19:00 +6°C° 0.1 mm 5 m/s 737 mmHg 76%
20:00 +5°C° 0.1 mm 5 m/s 738 mmHg 76%
21:00 +5°C° 0 mm 5 m/s 738 mmHg 77%
22:00 +3°C° 0 mm 5 m/s 739 mmHg 78%
23:00 +3°C° 0 mm 5 m/s 739 mmHg 79%

Mâine, 9 Mai, Duminică

Timp Temperatura Precipitaţii Vânt Presiune Umiditate
00:00 +2°C° 0 mm 5 m/s 740 mmHg 80%
01:00 +2°C° 0 mm 5 m/s 740 mmHg 81%
02:00 +1°C° 0 mm 5 m/s 741 mmHg 83%
03:00 +1°C° 0 mm 5 m/s 742 mmHg 84%
04:00 +1°C° 0 mm 5 m/s 742 mmHg 86%
05:00 0°C° 0 mm 5 m/s 743 mmHg 87%
06:00 +1°C° 0 mm 5 m/s 744 mmHg 80%
07:00 +2°C° 0 mm 5 m/s 744 mmHg 73%
08:00 +3°C° 0 mm 5 m/s 745 mmHg 66%
09:00 +6°C° 0 mm 5 m/s 745 mmHg 59%
10:00 +7°C° 0 mm 6 m/s 746 mmHg 53%
11:00 +8°C° 0 mm 6 m/s 746 mmHg 46%
12:00 +9°C° 0 mm 5 m/s 746 mmHg 43%
13:00 +10°C° 0 mm 5 m/s 747 mmHg 41%
14:00 +10°C° 0 mm 5 m/s 747 mmHg 38%
15:00 +10°C° 0 mm 5 m/s 748 mmHg 41%
16:00 +11°C° 0 mm 4 m/s 748 mmHg 44%
17:00 +11°C° 0 mm 4 m/s 748 mmHg 47%
18:00 +9°C° 0 mm 3 m/s 749 mmHg 52%
19:00 +7°C° 0 mm 2 m/s 750 mmHg 57%
20:00 +5°C° 0 mm 2 m/s 750 mmHg 63%
21:00 +5°C° 0 mm 2 m/s 751 mmHg 64%
22:00 +4°C° 0 mm 2 m/s 751 mmHg 64%
23:00 +5°C° 0 mm 1 m/s 752 mmHg 65%

Poimâine, 10 Mai, Luni

Timp Temperatura Precipitaţii Vânt Presiune Umiditate
00:00 +5°C° 0 mm 1 m/s 752 mmHg 67%
01:00 +3°C° 0 mm 2 m/s 752 mmHg 70%
02:00 +3°C° 0 mm 2 m/s 753 mmHg 72%
03:00 +3°C° 0 mm 2 m/s 753 mmHg 72%
04:00 +3°C° 0 mm 2 m/s 753 mmHg 73%
05:00 +4°C° 0 mm 2 m/s 754 mmHg 73%
06:00 +6°C° 0 mm 2 m/s 754 mmHg 67%
07:00 +8°C° 0 mm 3 m/s 754 mmHg 61%
08:00 +10°C° 0 mm 3 m/s 754 mmHg 55%
09:00 +11°C° 0 mm 3 m/s 754 mmHg 52%
10:00 +13°C° 0 mm 4 m/s 754 mmHg 50%
11:00 +14°C° 0 mm 4 m/s 754 mmHg 47%
12:00 +15°C° 0 mm 4 m/s 754 mmHg 47%
13:00 +15°C° 0 mm 4 m/s 754 mmHg 47%
14:00 +17°C° 0 mm 3 m/s 754 mmHg 47%
15:00 +17°C° 0 mm 3 m/s 754 mmHg 50%
16:00 +16°C° 0 mm 2 m/s 754 mmHg 54%
17:00 +16°C° 0 mm 2 m/s 754 mmHg 58%
18:00 +14°C° 0 mm 2 m/s 754 mmHg 64%
19:00 +13°C° 0 mm 2 m/s 754 mmHg 70%
20:00 +10°C° 0 mm 2 m/s 755 mmHg 77%
21:00 +10°C° 0 mm 1 m/s 755 mmHg 78%
22:00 +9°C° 0 mm 1 m/s 755 mmHg 79%
23:00 +9°C° 0 mm 1 m/s 755 mmHg 81%

11 Mai, Marţi

Timp Temperatura Precipitaţii Vânt Presiune Umiditate
00:00 +9°C° 0 mm 1 m/s 755 mmHg 82%
01:00 +8°C° 0 mm 1 m/s 755 mmHg 83%
02:00 +8°C° 0 mm 1 m/s 755 mmHg 84%
03:00 +8°C° 0 mm 1 m/s 756 mmHg 83%
04:00 +8°C° 0 mm 1 m/s 756 mmHg 82%
05:00 +9°C° 0 mm 1 m/s 756 mmHg 81%
06:00 +10°C° 0 mm 1 m/s 756 mmHg 75%
07:00 +12°C° 0 mm 1 m/s 756 mmHg 69%
08:00 +14°C° 0 mm 1 m/s 756 mmHg 62%
09:00 +15°C° 0 mm 2 m/s 756 mmHg 59%
10:00 +17°C° 0 mm 2 m/s 756 mmHg 55%
11:00 +18°C° 0 mm 2 m/s 756 mmHg 51%
12:00 +18°C° 0 mm 2 m/s 755 mmHg 51%
13:00 +19°C° 0 mm 2 m/s 755 mmHg 50%
14:00 +19°C° 0 mm 2 m/s 755 mmHg 50%
15:00 +19°C° 0 mm 2 m/s 755 mmHg 53%
16:00 +19°C° 0 mm 2 m/s 754 mmHg 57%
17:00 +19°C° 0 mm 2 m/s 754 mmHg 61%
18:00 +17°C° 0 mm 2 m/s 754 mmHg 68%
19:00 +15°C° 0 mm 2 m/s 754 mmHg 75%
20:00 +13°C° 0 mm 2 m/s 754 mmHg 82%
21:00 +12°C° 0 mm 2 m/s 754 mmHg 83%
22:00 +12°C° 0 mm 2 m/s 754 mmHg 84%
23:00 +10°C° 0 mm 2 m/s 754 mmHg 86%

12 Mai, Miercuri

Timp Temperatura Precipitaţii Vânt Presiune Umiditate
00:00 +10°C° 0 mm 2 m/s 754 mmHg 86%
01:00 +9°C° 0 mm 2 m/s 754 mmHg 87%
02:00 +9°C° 0 mm 2 m/s 753 mmHg 88%
03:00 +9°C° 0 mm 2 m/s 754 mmHg 88%
04:00 +9°C° 0 mm 2 m/s 754 mmHg 88%
05:00 +9°C° 0 mm 2 m/s 754 mmHg 88%
06:00 +12°C° 0 mm 2 m/s 753 mmHg 80%
07:00 +13°C° 0 mm 3 m/s 753 mmHg 72%
08:00 +15°C° 0 mm 4 m/s 753 mmHg 64%
09:00 +17°C° 0 mm 4 m/s 753 mmHg 59%
10:00 +18°C° 0 mm 4 m/s 753 mmHg 54%
11:00 +20°C° 0 mm 5 m/s 752 mmHg 49%
12:00 +20°C° 0 mm 5 m/s 752 mmHg 50%
13:00 +21°C° 0 mm 5 m/s 752 mmHg 50%
14:00 +21°C° 0 mm 4 m/s 751 mmHg 50%
15:00 +21°C° 0 mm 4 m/s 751 mmHg 54%
16:00 +21°C° 0 mm 4 m/s 751 mmHg 58%
17:00 +20°C° 0 mm 4 m/s 751 mmHg 61%
18:00 +19°C° 0 mm 3 m/s 751 mmHg 68%
19:00 +17°C° 0 mm 3 m/s 751 mmHg 75%
20:00 +14°C° 0 mm 3 m/s 751 mmHg 82%
21:00 +14°C° 0 mm 3 m/s 751 mmHg 81%
22:00 +14°C° 0 mm 3 m/s 751 mmHg 81%
23:00 +13°C° 0 mm 3 m/s 751 mmHg 80%

13 Mai, Joi

Timp Temperatura Precipitaţii Vânt Presiune Umiditate
00:00 +13°C° 0 mm 3 m/s 751 mmHg 80%
01:00 +13°C° 0 mm 3 m/s 750 mmHg 81%
02:00 +13°C° 0 mm 3 m/s 750 mmHg 81%
03:00 +13°C° 0 mm 3 m/s 750 mmHg 81%
04:00 +13°C° 0 mm 4 m/s 750 mmHg 81%
05:00 +13°C° 0 mm 4 m/s 750 mmHg 80%
06:00 +14°C° 0 mm 4 m/s 749 mmHg 76%
07:00 +16°C° 0 mm 5 m/s 749 mmHg 73%
08:00 +17°C° 0 mm 5 m/s 749 mmHg 69%
09:00 +17°C° 0 mm 5 m/s 749 mmHg 67%
10:00 +19°C° 0 mm 6 m/s 748 mmHg 66%
11:00 +20°C° 0 mm 6 m/s 748 mmHg 64%
12:00 +20°C° 0 mm 6 m/s 748 mmHg 63%
13:00 +21°C° 0 mm 6 m/s 747 mmHg 62%
14:00 +21°C° 0 mm 6 m/s 747 mmHg 61%
15:00 +21°C° 0.4 mm 6 m/s 746 mmHg 65%
16:00 +20°C° 0.4 mm 7 m/s 746 mmHg 69%
17:00 +18°C° 0.4 mm 7 m/s 746 mmHg 73%
18:00 +17°C° 0.3 mm 6 m/s 746 mmHg 77%
19:00 +16°C° 0.3 mm 6 m/s 746 mmHg 82%
20:00 +15°C° 0.3 mm 5 m/s 746 mmHg 86%
21:00 +14°C° 0 mm 5 m/s 746 mmHg 89%
22:00 +14°C° 0 mm 4 m/s 746 mmHg 91%
23:00 +13°C° 0 mm 4 m/s 746 mmHg 94%
Arată mai mult

Formular de consimțământ

Meteoprog și furnizorii noștri de servicii pot stoca și accesa date personale, precum cookies, identificatori de dispozitiv sau alte tehnologii similare pe dispozitivul dumneavoastră și procesa astfel de date pentru a personaliza conținutul și reclamele, dar și pentru a oferi caracteristici de social media și pentru a analiza traficul.

  • Stocarea și/sau accesarea informațiilor pe dispozitivul dumneavoastră

    Cookies, identificatori de dispozitiv sau alte informații pot fi stocate sau accesate pe dispozitiv în scopurile indicate mai sus.

  • Reclame și conținut personalizat, evaluarea reclamelor și a conținutului, informații despre audiențe și dezvoltarea produselor

    Reclamele și conținutul pot fi personalizate pe baza unui profil. Pot fi adăugate date suplimentare pentru a personaliza mai bine reclamele și conținutul. Performanța reclamelor și conținutului poate fi măsurată. Pot fi obținute informații despre utilizatorii care au văzut reclamele și conținutul. Aceste date pot fi utilizate pentru a dezvolta sau îmbunătăți experiența utilizatorilor, sistemele și software-ul.

Dând clic pe ‘Sunt de acord’, permiteți utilizarea cookie-urilor menționate, a identificatorilor de dispozitiv, balizelor web sau altor tehnologii similare. Setările pot fi modificate din browser-ul dispozitivului dumneavoastră.

În anumite scopuri, interesele legitime pot prima asupra consimțământului. Puteți citi mai multe informații în acest sens în Politica privind Confidențialitatea Datelor și Cookie.